FW4125 Weather Reports


Display with metric or nautical units.
time (UTC)temp
F
wind
direction
speed
MPH
gust
MPH
rain 1hr
in
rain 24hr
in
rain mn
in
humidity
%
barometer
mb
20260903190009 89 195 2.0 7.0 0.00 0.00 0.00 51 1087.2
20260903184504 89 175 1.0 7.0 0.00 0.00 0.00 51 1087.2
20260903183003 89 259 1.0 6.0 0.00 0.00 0.00 52 937.1
20260903181503 88 156 0.0 4.0 0.00 0.00 0.00 52 937.1
20260903180007 88 169 1.0 4.0 0.00 0.00 0.00 54 937.1
20260903174506 87 177 1.0 5.0 0.00 0.00 0.00 54 937.1
20260903173003 87 171 1.0 4.0 0.00 0.00 0.00 55 937.1
20260903171505 86 223 1.0 4.0 0.00 0.00 0.00 56 937.1
20260903170011 85 203 1.0 4.0 0.00 0.00 0.00 57 937.1
20260903164503 85 247 2.0 5.0 0.00 0.00 0.00 58 937.1
20260903163102 84 239 1.0 6.0 0.00 0.00 0.00 59 937.1
20260903161509 83 248 0.0 5.0 0.00 0.00 0.00 60 937.1
20260903160006 82 171 1.0 4.0 0.00 0.00 0.00 61 937.1
20260903154506 82 198 0.0 3.0 0.00 0.00 0.00 62 937.1
20260903153012 81 185 1.0 3.0 0.00 0.00 0.00 62 686.2
20260903151510 80 179 1.0 3.0 0.00 0.00 0.00 63 686.2
20260903150014 80 180 1.0 3.0 0.00 0.00 0.00 64 686.2
20260903144522 79 172 0.0 4.0 0.00 0.00 0.00 65 686.2
20260903143013 78 170 0.0 2.0 0.00 0.00 0.00 65 686.2
20260903141515 78 170 0.0 2.0 0.00 0.00 0.00 65 686.2
20260903140016 78 171 0.0 3.0 0.00 0.00 0.00 65 686.2
20260903134517 77 173 0.0 0.0 0.00 0.00 0.00 65 686.2
20260903133018 77 173 0.0 1.0 0.00 0.00 0.00 64 686.2
20260903131517 76 173 0.0 0.0 0.00 0.00 0.00 64 686.2
20260903130020 76 173 0.0 0.0 0.00 0.00 0.00 63 686.2
20260903124524 76 173 0.0 0.0 0.00 0.00 0.00 63 686.2
20260903123024 76 173 0.0 0.0 0.00 0.01 0.00 63 686.2
20260903121545 76 173 0.0 0.0 0.00 0.01 0.00 62 686.2
20260903120025 77 173 0.0 0.0 0.00 0.01 0.00 62 686.2
20260903114526 77 173 0.0 0.0 0.00 0.01 0.00 62 686.2
20260903113027 77 173 0.0 0.0 0.00 0.01 0.00 62 686.2
20260903111528 77 170 0.0 0.0 0.00 0.01 0.00 61 686.2
20260903110033 77 171 0.0 0.0 0.00 0.01 0.00 61 686.2
20260903104547 77 171 0.0 0.0 0.00 0.01 0.00 61 686.2
20260903103034 78 171 0.0 0.0 0.00 0.01 0.00 61 686.2
20260903101547 78 171 0.0 0.0 0.00 0.01 0.00 61 686.2
20260903100045 78 171 0.0 0.0 0.00 0.01 0.00 61 686.2
20260903094542 78 171 0.0 0.0 0.00 0.01 0.00 60 686.2
20260903093055 78 172 0.0 0.0 0.00 0.01 0.00 59 686.2
20260903091552 78 179 0.0 0.0 0.00 0.01 0.00 58 686.2
20260903090047 79 179 0.0 0.0 0.00 0.01 0.00 58 686.2
20260903084545 79 179 0.0 0.0 0.00 0.01 0.00 58 686.2
20260903083045 79 179 0.0 0.0 0.00 0.01 0.00 57 686.2
20260903081543 79 179 0.0 0.0 0.00 0.01 0.00 56 686.2
20260903080047 80 179 0.0 0.0 0.00 0.01 0.00 55 686.2
20260903074550 80 178 0.0 0.0 0.00 0.01 0.00 56 686.2
20260903073057 80 179 0.0 0.0 0.00 0.01 0.00 55 686.2
20260903071553 80 178 0.0 0.0 0.00 0.01 0.00 54 686.2
20260903070058 81 178 0.0 0.0 0.00 0.01 0.00 54 686.2
20260903064558 81 180 0.0 0.0 0.00 0.01 0.00 54 686.2
20260903063056 82 181 0.0 1.0 0.00 0.01 0.00 54 686.2
20260903061601 82 181 0.0 2.0 0.00 0.01 0.00 53 686.2
20260903060120 82 177 0.0 3.0 0.00 0.01 0.00 52 686.2
20260903054601 83 173 0.0 2.0 0.00 0.01 0.00 51 686.2
20260903053001 83 173 0.0 4.0 0.00 0.02 0.01 50 686.2
20260903051502 84 112 0.0 1.0 0.00 0.02 0.01 49 686.2
20260903050002 84 112 0.0 1.0 0.00 0.02 0.01 48 686.2
20260903044509 85 112 0.0 2.0 0.00 0.02 0.01 48 686.2
20260903043012 85 114 0.0 3.0 0.00 0.02 0.01 47 686.2
20260903041513 86 126 0.0 2.0 0.00 0.02 0.01 46 686.2
20260903040015 86 124 0.0 4.0 0.00 0.02 0.01 45 686.2
20260903034515 87 160 0.0 2.0 0.00 0.02 0.01 44 686.2
20260903033026 88 155 0.0 3.0 0.00 0.02 0.01 44 686.2
20260903031524 88 162 1.0 3.0 0.00 0.02 0.01 43 686.2
20260903030022 89 170 1.0 3.0 0.00 0.02 0.01 42 686.2
20260903024522 90 166 1.0 3.0 0.00 0.02 0.01 40 686.2
20260903023024 90 166 0.0 2.0 0.00 0.02 0.01 39 686.2
20260903021539 91 171 0.0 2.0 0.00 0.02 0.01 38 686.2
20260903020033 91 160 0.0 3.0 0.00 0.02 0.01 37 686.2
20260903014528 91 111 0.0 0.0 0.00 0.02 0.01 37 686.2
20260903013025 92 118 1.0 3.0 0.00 0.02 0.01 37 686.2
20260903011532 93 106 0.0 2.0 0.00 0.02 0.01 36 686.2
20260903010031 94 106 0.0 2.0 0.00 0.02 0.01 35 686.2
20260903004535 95 111 0.0 4.0 0.00 0.02 0.01 34 686.2
20260903003033 96 81 1.0 3.0 0.00 0.02 0.01 32 686.2
20260903001535 97 100 1.0 4.0 0.00 0.02 0.01 32 686.2
20260903000048 98 70 1.0 3.0 0.00 0.02 0.01 28 686.2
20260902234542 98 85 1.0 3.0 0.00 0.02 0.01 28 686.2
20260902233050 98 90 1.0 3.0 0.00 0.02 0.01 29 686.2
20260902231544 98 95 1.0 2.0 0.00 0.02 0.01 28 686.2
20260902230100 99 95 1.0 3.0 0.00 0.02 0.01 27 686.2
20260902224600 99 100 1.0 4.0 0.00 0.02 0.01 26 686.2
20260902223101 99 39 0.0 2.0 0.00 0.02 0.01 29 686.2
20260902221553 100 79 0.0 3.0 0.00 0.02 0.01 27 686.2
20260902220056 100 86 1.0 4.0 0.00 0.02 0.01 27 686.2
20260902214606 100 68 1.0 4.0 0.00 0.02 0.01 27 927.2
20260902213059 100 95 2.0 5.0 0.00 0.02 0.01 27 927.2
20260902211601 100 168 1.0 4.0 0.00 0.02 0.01 28 927.2
20260902210053 100 90 1.0 5.0 0.00 0.02 0.01 28 927.2
20260902204556 100 23 1.0 4.0 0.00 0.02 0.01 29 927.2
20260902203104 100 3 0.0 3.0 0.00 0.02 0.01 30 927.2
20260902201505 100 117 0.0 3.0 0.00 0.02 0.01 30 927.2
20260902194504 99 70 0.0 4.0 0.00 0.02 0.01 31 927.2
20260902193006 99 288 0.0 2.0 0.00 0.02 0.01 33 927.2
20260902191516 99 285 1.0 4.0 0.00 0.02 0.01 32 927.2